Torna al catalogo

STARLINK-5775

AttivoComunicazioniVLEO
NORAD 56503·PAYLOAD·🇺🇸 United States

Lanciato May 14, 2023 da Cape Canaveral Space Force Station

Loading…

Prossimi Passaggi (prossime 24 ore)

TLE

AggiornatoSource: CelesTrak SupGP

Epoca: Sep 14, 2026, 21:24 UTC

1 56503C 23065A   26257.89215278  .00017778  00000+0  64399-3 0  2579
2 56503  42.9994 223.7728 0001096 249.0952 273.1156 15.27566495    12

Traccia STARLINK-5775 in tempo reale con AllMySat

Download on the App Store